******************************************************************************* JPL/HORIZONS (2024 YR4) 2025-Dec-12 21:15:59 Rec #:50582929 (+COV) Soln.date: 2025-Jun-03_07:47:32 # obs: 477 (2024-2025) IAU76/J2000 helio. ecliptic osc. elements (au, days, deg., period=Julian yrs): EPOCH= 2460705.5 ! 2025-Jan-30.00 (TDB) Residual RMS= .058675 EC= .6615999301423001 QR= .8515188266875525 TP= 2460636.9238411798 OM= 271.3674693540159 W= 134.3644983455991 IN= 3.408259321981154 A= 2.516308070047454 MA= 16.93290662173731 ADIST= 4.181097313407356 PER= 3.99166 N= .246921188 ANGMOM= .020461704 DAN= 2.63285 DDN= .96737 L= 45.7826715 B= 2.4358823 MOID= .00285384 TP= 2024-Nov-22.4238411798 Asteroid physical parameters (km, seconds, rotational period in hours): GM= n.a. RAD= n.a. ROTPER= n.a. H= 23.92 G= .150 B-V= n.a. ALBEDO= n.a. STYP= n.a. ASTEROID comments: 1: soln ref.= JPL#78, OCC=3 2: source=ORB ******************************************************************************* ******************************************************************************* Ephemeris / WWW_USER Fri Dec 12 21:15:59 2025 Pasadena, USA / Horizons ******************************************************************************* Target body name: (2024 YR4) {source: JPL#78} Center body name: Earth (399) {source: DE441} Center-site name: GEOCENTRIC ******************************************************************************* Start time : A.D. 2028-Jul-19 00:00:00.0000 UT Stop time : A.D. 2028-Jul-20 00:00:00.0000 UT Step-size : 120 minutes ******************************************************************************* Target pole/equ : undefined Target radii : undefined Center geodetic : 0.0, 0.0, -6378.137 {E-lon(deg),Lat(deg),Alt(km)} Center cylindric: 0.0, 0.0, 0.0 {E-lon(deg),Dxy(km),Dz(km)} Center pole/equ : ITRF93 {East-longitude positive} Center radii : 6378.137, 6378.137, 6356.752 km {Equator_a, b, pole_c} Target primary : Sun Vis. interferer : MOON (R_eq= 1737.400) km {source: DE441} Rel. light bend : Sun {source: DE441} Rel. lght bnd GM: 1.3271E+11 km^3/s^2 Small-body perts: Yes {source: SB441-N16} Atmos refraction: NO (AIRLESS) RA format : HMS Time format : CAL Calendar mode : Mixed Julian/Gregorian EOP file : eop.251212.p260310 EOP coverage : DATA-BASED 1962-JAN-20 TO 2025-DEC-12. PREDICTS-> 2026-MAR-09 Units conversion: 1 au= 149597870.700 km, c= 299792.458 km/s, 1 day= 86400.0 s Table cut-offs 1: Elevation (-90.0deg=NO ),Airmass (>38.000=NO), Daylight (NO ) Table cut-offs 2: Solar elongation ( 0.0,180.0=NO ),Local Hour Angle( 0.0=NO ) Table cut-offs 3: RA/DEC angular rate ( 0.0=NO ) ******************************************************************************* Initial IAU76/J2000 heliocentric ecliptic osculating elements (au, days, deg.): EPOCH= 2460705.5 ! 2025-Jan-30.00 (TDB) Residual RMS= .058675 EC= .6615999301423001 QR= .8515188266875525 TP= 2460636.9238411798 OM= 271.3674693540159 W= 134.3644983455991 IN= 3.408259321981154 Equivalent ICRF heliocentric cartesian coordinates (au, au/d): X=-7.817185871179870E-01 Y= 9.591166659204480E-01 Z= 3.666886038072873E-01 VX=-1.831413040000361E-02 VY=-1.487883867213291E-03 VZ=-1.836791648737177E-03 Asteroid physical parameters (km, seconds, rotational period in hours): GM= n.a. RAD= n.a. ROTPER= n.a. H= 23.92 G= .150 B-V= n.a. ALBEDO= n.a. STYP= n.a. ************************************************************************************************************** Date__(UT)__HR:MN APmag S-brt r rdot delta deldot S-O-T /r ************************************************************************************************************** $$SOE 2028-Jul-19 00:00 24.912 n.a. 1.802590066218 -15.6501284 0.78713808663755 -15.7371990 176.5677 /L 2028-Jul-19 02:00 24.909 n.a. 1.801836733667 -15.6529377 0.78638145101225 -15.7031419 176.5858 /T 2028-Jul-19 04:00 24.905 n.a. 1.801083266035 -15.6557449 0.78562645480621 -15.6690740 176.6002 /T 2028-Jul-19 06:00 24.902 n.a. 1.800329663418 -15.6585502 0.78487309852671 -15.6349958 176.6109 /T 2028-Jul-19 08:00 24.899 n.a. 1.799575925911 -15.6613535 0.78412138266815 -15.6009074 176.6178 /T 2028-Jul-19 10:00 24.896 n.a. 1.798822053611 -15.6641548 0.78337130771200 -15.5668092 176.6209 /T 2028-Jul-19 12:00 24.893 n.a. 1.798068046615 -15.6669541 0.78262287412649 -15.5327013 176.6202 /T 2028-Jul-19 14:00 24.890 n.a. 1.797313905019 -15.6697514 0.78187608236654 -15.4985842 176.6158 /T 2028-Jul-19 16:00 24.887 n.a. 1.796559628921 -15.6725466 0.78113093287346 -15.4644580 176.6075 /T 2028-Jul-19 18:00 24.885 n.a. 1.795805218420 -15.6753398 0.78038742607483 -15.4303232 176.5954 /T 2028-Jul-19 20:00 24.883 n.a. 1.795050673612 -15.6781310 0.77964556238430 -15.3961798 176.5796 /T 2028-Jul-19 22:00 24.881 n.a. 1.794295994598 -15.6809201 0.77890534220135 -15.3620283 176.5600 /T 2028-Jul-20 00:00 24.879 n.a. 1.793541181475 -15.6837071 0.77816676591113 -15.3278690 176.5368 /T $$EOE ************************************************************************************************************** Column meaning: TIME Times PRIOR to 1962 are UT1, a mean-solar time closely related to the prior but now-deprecated GMT. Times AFTER 1962 are in UTC, the current civil or "wall-clock" time-scale. UTC is kept within 0.9 seconds of UT1 using integer leap-seconds for 1972 and later years. Conversion from the internal Barycentric Dynamical Time (TDB) of solar system dynamics to the non-uniform civil UT time-scale requested for output has not been determined for UTC times after the next July or January 1st. Therefore, the last known leap-second is used as a constant over future intervals. Time tags refer to the UT time-scale conversion from TDB on Earth regardless of observer location within the solar system, although clock rates may differ due to the local gravity field and no analog to "UT" may be defined for that location. Any 'b' symbol in the 1st-column denotes a B.C. date. First-column blank (" ") denotes an A.D. date. CALENDAR SYSTEM Mixed calendar mode was active such that calendar dates after AD 1582-Oct-15 (if any) are in the modern Gregorian system. Dates prior to 1582-Oct-5 (if any) are in the Julian calendar system, which is automatically extended for dates prior to its adoption on 45-Jan-1 BC. The Julian calendar is useful for matching historical dates. The Gregorian calendar more accurately corresponds to the Earth's orbital motion and seasons. A "Gregorian-only" calendar mode is available if such physical events are the primary interest. NOTE: "n.a." in output means quantity "not available" at the print-time. 'APmag S-brt' = The asteroids' approximate apparent airless visual magnitude and surface brightness using the standard IAU H-G system magnitude model: APmag = H + 5*log10(delta) + 5*log10(r) - 2.5*log10((1-G)*phi_1 + G*phi_2) For solar phase angles >90 deg, the error could exceed 1 magnitude. For phase angles >120 degrees, output values are rounded to the nearest integer to indicate error could be large and unknown. For Earth-based observers, the estimated dimming due to atmospheric absorption (extinction) is available as a separate, requestable quantity. Surface brightness is the average airless visual magnitude of a square-arcsecond of the illuminated portion of the apparent disk. It is computed only if the target radius is known. Units: MAGNITUDES & MAGNITUDES PER SQUARE ARCSECOND 'r rdot' = The Sun's apparent range ("r", light-time aberrated) and range-rate ("rdot") relative to the target center, as seen by the observer. A positive "rdot" means the target center was moving away from the Sun, negative means moving toward the Sun. Units: AU and KM/S 'delta deldot' = Apparent range ("delta", light-time aberrated) and range-rate ("delta-dot") of the target center relative to the observer. A positive "deldot" means the target center is moving away from the observer, negative indicates movement toward the observer. Units: AU and KM/S 'S-O-T /r' = Sun-Observer-Target apparent SOLAR ELONGATION ANGLE seen from the observers' location at print-time. The '/r' column provides a code indicating the targets' apparent position relative to the Sun in the observers' sky, as described below: Case A: For an observing location on the surface of a rotating body, that body rotational sense is considered: /T indicates target TRAILS Sun (evening sky: rises and sets AFTER Sun) /L indicates target LEADS Sun (morning sky: rises and sets BEFORE Sun) Case B: For an observing point that does not have a rotational model (such as a spacecraft), the "leading" and "trailing" condition is defined by the observers' heliocentric ORBITAL motion: * If continuing in the observers' current direction of heliocentric motion would encounter the targets' apparent longitude first, followed by the Sun's, the target LEADS the Sun as seen by the observer. * If the Sun's apparent longitude would be encountered first, followed by the targets', the target TRAILS the Sun. Two other codes can be output: /* indicates observer is Sun-centered (undefined) /? Target is aligned with Sun center (no lead or trail) The S-O-T solar elongation angle is numerically the minimum separation angle of the Sun and target in the sky in any direction. It does NOT indicate the amount of separation in the leading or trailing directions, which would be defined along the equator of a spherical coordinate system. Units: DEGREES Computations by ... Solar System Dynamics Group, Horizons On-Line Ephemeris System 4800 Oak Grove Drive, Jet Propulsion Laboratory Pasadena, CA 91109 USA General site: https://ssd.jpl.nasa.gov/ Mailing list: https://ssd.jpl.nasa.gov/email_list.html System news : https://ssd.jpl.nasa.gov/horizons/news.html User Guide : https://ssd.jpl.nasa.gov/horizons/manual.html Connect : browser https://ssd.jpl.nasa.gov/horizons/app.html#/x API https://ssd-api.jpl.nasa.gov/doc/horizons.html command-line telnet ssd.jpl.nasa.gov 6775 e-mail/batch https://ssd.jpl.nasa.gov/ftp/ssd/horizons_batch.txt scripts https://ssd.jpl.nasa.gov/ftp/ssd/SCRIPTS Author : Jon.D.Giorgini@jpl.nasa.gov ************************************************************************************************************** !$$SOF COMMAND = '2024 YR4' QUANTITIES = '9,19,20,23' START_TIME = '2028-Jul-19' STEP_SIZE = '2 hour' STOP_TIME = '2028-Jul-20'